This is the latest recevied weather packets stored in our database for station/object K5GTX. If no packets are shown the sender has not sent any weather packets the latest 10 day(s).
| Time | Temp. | Humidity | Pressure | Rain* | Wind** | Luminosity | Snow |
|---|---|---|---|---|---|---|---|
| 1777678977 | 17.78° C | 99% | 1022.3 hPa | 0 mm | - | 44 W/m² | - |
| 1777678676 | 17.78° C | 99% | 1022.2 hPa | 0 mm | - | 55 W/m² | - |
| 1777678373 | 17.78° C | 99% | 1022.2 hPa | 0 mm | - | 72 W/m² | - |
| 1777678068 | 17.78° C | 99% | 1022.2 hPa | 0 mm | - | 76 W/m² | - |
| 1777677765 | 17.78° C | 99% | 1022 hPa | 0 mm | - | 65 W/m² | - |
| 1777677463 | 17.78° C | 99% | 1022 hPa | 0 mm | - | 83 W/m² | - |
| 1777677161 | 17.78° C | 99% | 1022 hPa | 0 mm | - | 79 W/m² | - |
| 1777676859 | 17.78° C | 99% | 1021.9 hPa | 0 mm | - | 71 W/m² | - |
| 1777676558 | 17.78° C | 99% | 1021.8 hPa | 0 mm | - | 64 W/m² | - |
| 1777676255 | 17.78° C | 99% | 1021.8 hPa | 0 mm | - | 65 W/m² | - |
| 1777675952 | 17.78° C | 99% | 1021.8 hPa | 0 mm | - | 75 W/m² | - |
| 1777675648 | 17.78° C | 99% | 1021.7 hPa | 0 mm | - | 82 W/m² | - |
| 1777675346 | 17.78° C | 99% | 1021.9 hPa | 0 mm | - | 84 W/m² | - |
| 1777675041 | 17.78° C | 99% | 1021.9 hPa | 0 mm | - | 104 W/m² | - |
| 1777674738 | 18.33° C | 99% | 1021.8 hPa | 0 mm | - | 110 W/m² | - |
| 1777674435 | 17.78° C | 99% | 1021.8 hPa | 0 mm | - | 109 W/m² | - |
| 1777674133 | 17.78° C | 99% | 1022 hPa | 0 mm | - | 120 W/m² | - |
| 1777673828 | 17.78° C | 99% | 1021.8 hPa | 0 mm | - | 117 W/m² | - |
| 1777673525 | 17.78° C | 99% | 1021.8 hPa | 0 mm | - | 130 W/m² | - |
| 1777673223 | 17.78° C | 99% | 1021.8 hPa | 0 mm | - | 136 W/m² | - |
| 1777672920 | 17.78° C | 99% | 1022.1 hPa | 0 mm | - | 144 W/m² | - |
| 1777672617 | 18.33° C | 99% | 1022 hPa | 0 mm | - | 144 W/m² | - |
| 1777672312 | 17.78° C | 99% | 1021.9 hPa | 0 mm | - | 136 W/m² | - |
| 1777672007 | 18.33° C | 99% | 1021.9 hPa | 0 mm | - | 141 W/m² | - |
| 1777671703 | 18.33° C | 99% | 1021.7 hPa | 0 mm | - | 161 W/m² | - |
* Rain latest hour (hover to see other rain measurements)
** Current wind speed in m/s (hover to see current wind gust speed)